| time (UTC) | temp F | wind direction | speed MPH | gust MPH | rain 1hr in | rain 24hr in | rain mn in | humidity % | barometer mb |
| 20260901183028 | 89 | 153 | 5.0 | 11.0 | 0.00 | 0.33 | 0.00 | 75 | 1012.8 |
| 20260901181545 | 89 | 213 | 5.0 | 12.0 | 0.00 | 0.33 | 0.00 | 75 | 1012.7 |
| 20260901180025 | 89 | 162 | 3.0 | 11.0 | 0.00 | 0.33 | 0.00 | 76 | 1012.8 |
| 20260901174545 | 88 | 113 | 3.0 | 10.0 | 0.00 | 0.33 | 0.00 | 76 | 1013.0 |
| 20260901173023 | 88 | 123 | 3.0 | 8.0 | 0.00 | 0.33 | 0.00 | 76 | 1012.8 |
| 20260901171531 | 88 | 119 | 2.0 | 9.0 | 0.00 | 0.33 | 0.00 | 74 | 1012.8 |
| 20260901170023 | 89 | 147 | 4.0 | 8.0 | 0.00 | 0.33 | 0.00 | 72 | 1012.7 |
| 20260901164524 | 89 | 157 | 1.0 | 7.0 | 0.00 | 0.33 | 0.00 | 75 | 1012.8 |
| 20260901163021 | 88 | 155 | 1.0 | 3.0 | 0.00 | 0.33 | 0.00 | 77 | 1012.9 |
| 20260901161514 | 85 | 311 | 0.0 | 1.0 | 0.00 | 0.33 | 0.00 | 79 | 1012.8 |
| 20260901160013 | 82 | 311 | 0.0 | 1.0 | 0.00 | 0.33 | 0.00 | 80 | 1012.9 |
| 20260901154505 | 81 | 311 | 0.0 | 2.0 | 0.00 | 0.33 | 0.00 | 82 | 1012.9 |
| 20260901153114 | 80 | 311 | 0.0 | 2.0 | 0.00 | 0.33 | 0.00 | 83 | 1012.9 |
| 20260901151604 | 79 | 311 | 0.0 | 4.0 | 0.00 | 0.33 | 0.00 | 84 | 1012.7 |
| 20260901150058 | 78 | 314 | 1.0 | 5.0 | 0.00 | 0.33 | 0.00 | 85 | 1012.5 |
| 20260901144555 | 78 | 313 | 0.0 | 3.0 | 0.00 | 0.33 | 0.00 | 85 | 1012.5 |
| 20260901143118 | 77 | 307 | 2.0 | 5.0 | 0.00 | 0.33 | 0.00 | 86 | 1012.3 |
| 20260901141554 | 76 | 313 | 2.0 | 5.0 | 0.00 | 0.33 | 0.00 | 87 | 1012.2 |
| 20260901140055 | 76 | 309 | 1.0 | 4.0 | 0.00 | 0.33 | 0.00 | 87 | 1012.0 |
| 20260901134554 | 75 | 308 | 1.0 | 3.0 | 0.00 | 0.33 | 0.00 | 87 | 1011.8 |
| 20260901133054 | 76 | 307 | 1.0 | 4.0 | 0.00 | 0.33 | 0.00 | 87 | 1011.8 |
| 20260901131554 | 76 | 312 | 0.0 | 3.0 | 0.00 | 0.33 | 0.00 | 87 | 1011.7 |
| 20260901130050 | 75 | 313 | 0.0 | 5.0 | 0.00 | 0.33 | 0.00 | 87 | 1011.7 |
| 20260901124550 | 75 | 319 | 0.0 | 3.0 | 0.00 | 0.33 | 0.00 | 87 | 1011.7 |
| 20260901123101 | 75 | 310 | 0.0 | 4.0 | 0.00 | 0.33 | 0.00 | 87 | 1011.5 |
| 20260901121549 | 76 | 318 | 0.0 | 4.0 | 0.00 | 0.33 | 0.00 | 87 | 1011.6 |
| 20260901120056 | 76 | 320 | 0.0 | 2.0 | 0.00 | 0.33 | 0.00 | 87 | 1011.4 |
| 20260901114549 | 76 | 318 | 0.0 | 2.0 | 0.00 | 0.33 | 0.00 | 87 | 1011.3 |
| 20260901113050 | 76 | 317 | 0.0 | 2.0 | 0.00 | 0.33 | 0.00 | 87 | 1011.3 |
| 20260901111550 | 76 | 307 | 0.0 | 3.0 | 0.00 | 0.33 | 0.00 | 87 | 1011.2 |
| 20260901110045 | 76 | 304 | 1.0 | 3.0 | 0.00 | 0.33 | 0.00 | 87 | 1011.2 |
| 20260901104547 | 76 | 304 | 0.0 | 3.0 | 0.00 | 0.33 | 0.00 | 87 | 1011.2 |
| 20260901103042 | 77 | 303 | 0.0 | 1.0 | 0.00 | 0.33 | 0.00 | 87 | 1011.4 |
| 20260901101541 | 77 | 303 | 0.0 | 0.0 | 0.00 | 0.33 | 0.00 | 86 | 1011.2 |
| 20260901100046 | 77 | 303 | 0.0 | 1.0 | 0.00 | 0.33 | 0.00 | 86 | 1011.5 |
| 20260901094538 | 77 | 303 | 0.0 | 0.0 | 0.00 | 0.33 | 0.00 | 86 | 1011.6 |
| 20260901093037 | 77 | 311 | 1.0 | 4.0 | 0.00 | 0.33 | 0.00 | 86 | 1011.7 |
| 20260901091536 | 77 | 312 | 1.0 | 2.0 | 0.00 | 0.33 | 0.00 | 86 | 1011.8 |
| 20260901090035 | 77 | 312 | 1.0 | 4.0 | 0.00 | 0.33 | 0.00 | 86 | 1011.7 |
| 20260901084536 | 77 | 312 | 0.0 | 3.0 | 0.00 | 0.33 | 0.00 | 86 | 1011.7 |
| 20260901083033 | 77 | 312 | 0.0 | 2.0 | 0.00 | 0.33 | 0.00 | 86 | 1011.8 |
| 20260901081533 | 77 | 310 | 1.0 | 3.0 | 0.00 | 0.33 | 0.00 | 86 | 1011.9 |
| 20260901080032 | 78 | 310 | 0.0 | 1.0 | 0.00 | 0.33 | 0.00 | 86 | 1012.2 |
| 20260901074528 | 78 | 310 | 0.0 | 0.0 | 0.00 | 0.33 | 0.00 | 86 | 1012.3 |
| 20260901073030 | 78 | 310 | 0.0 | 3.0 | 0.00 | 0.33 | 0.00 | 86 | 1012.4 |
| 20260901071526 | 78 | 310 | 1.0 | 4.0 | 0.00 | 0.33 | 0.00 | 86 | 1012.4 |
| 20260901070023 | 78 | 310 | 0.0 | 3.0 | 0.00 | 0.33 | 0.00 | 86 | 1012.5 |
| 20260901064525 | 78 | 312 | 0.0 | 5.0 | 0.00 | 0.33 | 0.33 | 86 | 1012.5 |
| 20260901063032 | 78 | 311 | 0.0 | 4.0 | 0.00 | 0.33 | 0.33 | 86 | 1012.5 |
| 20260901061522 | 78 | 313 | 1.0 | 3.0 | 0.00 | 0.33 | 0.33 | 86 | 1012.5 |
| 20260901060021 | 78 | 317 | 0.0 | 1.0 | 0.00 | 0.33 | 0.33 | 86 | 1012.4 |
| 20260901054521 | 78 | 319 | 1.0 | 2.0 | 0.00 | 0.33 | 0.33 | 86 | 1012.3 |
| 20260901053024 | 79 | 319 | 0.0 | 2.0 | 0.00 | 0.33 | 0.33 | 86 | 1012.3 |
| 20260901051532 | 79 | 319 | 0.0 | 2.0 | 0.00 | 0.33 | 0.33 | 86 | 1012.3 |
| 20260901050020 | 79 | 319 | 0.0 | 2.0 | 0.00 | 0.33 | 0.33 | 86 | 1012.2 |
| 20260901044519 | 79 | 316 | 0.0 | 1.0 | 0.00 | 0.33 | 0.33 | 86 | 1012.3 |
| 20260901043030 | 80 | 315 | 0.0 | 3.0 | 0.00 | 0.33 | 0.33 | 86 | 1012.2 |
| 20260901041519 | 79 | 315 | 0.0 | 1.0 | 0.00 | 0.33 | 0.33 | 86 | 1012.1 |
| 20260901040023 | 79 | 313 | 0.0 | 3.0 | 0.00 | 0.33 | 0.33 | 86 | 1012.0 |
| 20260901034518 | 79 | 313 | 0.0 | 2.0 | 0.00 | 0.33 | 0.33 | 86 | 1011.9 |
| 20260901033019 | 79 | 313 | 0.0 | 2.0 | 0.00 | 0.33 | 0.33 | 86 | 1011.4 |
| 20260901031518 | 79 | 313 | 0.0 | 2.0 | 0.00 | 0.33 | 0.33 | 86 | 1011.2 |
| 20260901030016 | 79 | 313 | 0.0 | 1.0 | 0.00 | 0.33 | 0.33 | 86 | 1011.1 |
| 20260901024516 | 80 | 313 | 0.0 | 0.0 | 0.00 | 0.33 | 0.33 | 85 | 1011.0 |
| 20260901023025 | 80 | 313 | 0.0 | 0.0 | 0.00 | 0.33 | 0.33 | 85 | 1010.9 |
| 20260901021515 | 80 | 313 | 0.0 | 3.0 | 0.00 | 0.33 | 0.33 | 85 | 1010.6 |
| 20260901020014 | 79 | 313 | 0.0 | 3.0 | 0.00 | 0.33 | 0.33 | 85 | 1010.5 |
| 20260901014514 | 79 | 319 | 0.0 | 2.0 | 0.00 | 0.33 | 0.33 | 85 | 1010.2 |
| 20260901013014 | 79 | 319 | 0.0 | 2.0 | 0.00 | 0.33 | 0.33 | 86 | 1010.3 |
| 20260901011516 | 79 | 320 | 1.0 | 4.0 | 0.00 | 0.33 | 0.33 | 86 | 1010.1 |
| 20260901010012 | 80 | 318 | 0.0 | 5.0 | 0.00 | 0.33 | 0.33 | 86 | 1009.9 |
| 20260901004512 | 80 | 360 | 0.0 | 2.0 | 0.00 | 0.33 | 0.33 | 86 | 1009.7 |
| 20260901003012 | 80 | 316 | 0.0 | 4.0 | 0.00 | 0.33 | 0.33 | 86 | 1009.6 |
| 20260901001511 | 80 | 306 | 1.0 | 4.0 | 0.00 | 0.33 | 0.33 | 86 | 1009.7 |
| 20260901000010 | 79 | 303 | 2.0 | 6.0 | 0.00 | 0.33 | 0.33 | 86 | 1009.8 |
| 20260831234511 | 79 | 355 | 0.0 | 1.0 | 0.00 | 0.33 | 0.33 | 87 | 1009.7 |
| 20260831233009 | 78 | 348 | 1.0 | 6.0 | 0.00 | 0.33 | 0.33 | 87 | 1009.5 |
| 20260831231508 | 77 | 355 | 1.0 | 5.0 | 0.00 | 0.33 | 0.33 | 87 | 1009.7 |
| 20260831230010 | 77 | 308 | 1.0 | 9.0 | 0.00 | 0.33 | 0.33 | 87 | 1009.8 |
| 20260831224506 | 76 | 326 | 0.0 | 5.0 | 0.00 | 0.33 | 0.33 | 87 | 1010.2 |
| 20260831223006 | 76 | 9 | 1.0 | 9.0 | 0.00 | 0.33 | 0.33 | 87 | 1010.3 |
| 20260831221505 | 76 | 24 | 2.0 | 8.0 | 0.01 | 0.33 | 0.33 | 87 | 1010.3 |
| 20260831220007 | 76 | 360 | 1.0 | 6.0 | 0.06 | 0.33 | 0.33 | 87 | 1010.5 |
| 20260831214503 | 76 | 41 | 0.0 | 6.0 | 0.25 | 0.33 | 0.33 | 87 | 1010.8 |
| 20260831213002 | 76 | 22 | 1.0 | 6.0 | 0.33 | 0.33 | 0.33 | 87 | 1011.2 |
| 20260831211503 | 76 | 304 | 2.0 | 7.0 | 0.32 | 0.32 | 0.32 | 86 | 1011.5 |
| 20260831210001 | 76 | 317 | 3.0 | 12.0 | 0.26 | 0.26 | 0.26 | 86 | 1012.1 |
| 20260831204558 | 77 | 355 | 3.0 | 16.0 | 0.08 | 0.08 | 0.08 | 83 | 1012.4 |
| 20260831203054 | 84 | 34 | 7.0 | 21.0 | 0.00 | 0.00 | 0.00 | 74 | 1012.0 |
| 20260831201553 | 94 | 57 | 6.0 | 13.0 | 0.00 | 0.00 | 0.00 | 62 | 1011.8 |
| 20260831200051 | 94 | 103 | 2.0 | 10.0 | 0.00 | 0.00 | 0.00 | 66 | 1011.0 |
| 20260831194625 | 93 | 149 | 3.0 | 8.0 | 0.00 | 0.00 | 0.00 | 67 | 1011.4 |
| 20260831193048 | 94 | 97 | 2.0 | 8.0 | 0.00 | 0.00 | 0.00 | 67 | 1011.7 |
| 20260831191548 | 93 | 153 | 3.0 | 7.0 | 0.00 | 0.00 | 0.00 | 65 | 1011.8 |
| 20260831190059 | 92 | 123 | 2.0 | 8.0 | 0.00 | 0.00 | 0.00 | 65 | 1011.8 |
| 20260831184541 | 91 | 173 | 2.0 | 6.0 | 0.00 | 0.00 | 0.00 | 63 | 1012.2 |